Pearl River, LA

8:29 PM CST on December 08, 2016 (GMT -0600)
Slidell

Weather History for KASD - April, 2013

Change the Weather History Date:

Wednesday, April 24, 2013

  Actual Average (KNEW) Record (KNEW)
Temperature  
Mean Temperature 65 °F -  
Max Temperature 73 °F 79 °F 90 °F (2002)
Min Temperature 57 °F 64 °F 44 °F (1968)
Growing Degree Days 15 (Base 50)    
Moisture  
Dew Point 66 °F    
Average Humidity 93    
Maximum Humidity 100    
Minimum Humidity 78    
Precipitation  
Precipitation 0.30 in - - ()
Sea Level Pressure  
Sea Level Pressure 30.08 in    
Wind  
Wind Speed 7 mph (ESE)    
Max Wind Speed 14 mph    
Max Gust Speed 21 mph    
Visibility 8 miles    
Events Rain , Thunderstorm    
Averages and records for this station are not official NWS values.
T = Trace of Precipitation, MM = Missing Value Source: NWS Daily Summary

Daily Weather History Graph

Daily Weather History Graph

Search for Another Location

Airport or City:

Trip Planner

Search our weather history database for the weather conditions in past years. The results will help you decide how hot, cold, wet, or windy it might be!

Date:

Astronomy

Apr. 24, 2013 Rise Set
Actual Time 6:22 AM CDT 7:32 PM CDT
Civil Twilight 5:57 AM CDT 7:57 PM CDT
Nautical Twilight 5:27 AM CDT 8:27 PM CDT
Astronomical Twilight 4:56 AM CDT 8:58 PM CDT
Moon 6:38 PM CDT (4/24) 5:21 AM CDT (4/24)
Length of Visible Light 14h 00m
Length of Day
13h 10m
Waxing Gibbous, 98% of the Moon is Illuminated
Apr 24
Waxing Gibbous
Apr 25
Full
May 2
Last Quarter
May 9
New
May 17
First Quarter

Hourly Weather History & Observations

Time (CDT) Temp. Dew Point Humidity Pressure Visibility Wind Dir Wind Speed Gust Speed Precip Events Conditions
12:07 AM 71.6 °F 68.0 °F 88% 30.04 in 10.0 mi SSE 6.9 mph - N/A   Overcast
12:53 AM 71.1 °F 68.0 °F 90% 30.04 in 10.0 mi SSE 8.1 mph - N/A   Overcast
1:53 AM 71.1 °F 68.0 °F 90% 30.03 in 10.0 mi SSE 5.8 mph - N/A   Overcast
2:01 AM 71.6 °F 68.0 °F 88% 30.03 in 10.0 mi SSE 6.9 mph - N/A   Overcast
2:53 AM 71.1 °F 68.0 °F 90% 30.02 in 10.0 mi SSE 5.8 mph - N/A   Mostly Cloudy
3:53 AM 70.0 °F 68.0 °F 93% 30.04 in 10.0 mi Calm Calm - N/A   Mostly Cloudy
4:02 AM 69.8 °F 68.0 °F 94% 30.04 in 10.0 mi Calm Calm - N/A   Mostly Cloudy
4:06 AM 69.8 °F 68.0 °F 94% 30.04 in 10.0 mi Calm Calm - N/A   Mostly Cloudy
5:33 AM 69.8 °F 68.0 °F 94% 30.04 in 9.0 mi SE 3.5 mph - N/A   Overcast
5:45 AM 69.8 °F 68.0 °F 94% 30.04 in 9.0 mi SE 5.8 mph - N/A   Overcast
5:53 AM 69.1 °F 68.0 °F 96% 30.04 in 9.0 mi SSE 3.5 mph - N/A   Overcast
6:40 AM 69.8 °F 69.8 °F 100% 30.03 in 7.0 mi SSE 4.6 mph - N/A   Overcast
6:53 AM 70.0 °F 69.1 °F 97% 30.04 in 8.0 mi SE 8.1 mph - N/A   Overcast
7:53 AM 71.1 °F 69.1 °F 93% 30.05 in 9.0 mi SSE 9.2 mph - N/A   Overcast
8:23 AM 71.6 °F 69.8 °F 94% 30.06 in 9.0 mi South 9.2 mph - N/A   Overcast
8:33 AM 71.6 °F 69.8 °F 94% 30.06 in 9.0 mi South 8.1 mph - N/A   Overcast
8:53 AM 71.1 °F 69.1 °F 93% 30.02 in 9.0 mi SSE 12.7 mph - N/A   Overcast
9:53 AM 72.0 °F 70.0 °F 93% 30.05 in 9.0 mi South 9.2 mph - N/A   Overcast
10:11 AM 71.6 °F 69.8 °F 94% 30.07 in 8.0 mi Calm Calm - 0.00 in Rain , Thunderstorm Light Rain
10:22 AM 71.6 °F 69.8 °F 94% 30.11 in 6.0 mi WNW 4.6 mph - 0.01 in Rain , Thunderstorm Light Rain
10:45 AM 71.6 °F 71.6 °F 100% 30.12 in 2.5 mi Calm Calm - 0.06 in Rain , Thunderstorm Thunderstorms and Rain
10:53 AM 71.1 °F 70.0 °F 96% 30.09 in 2.5 mi ENE 5.8 mph - 0.08 in Rain , Thunderstorm Rain
11:07 AM 71.6 °F 69.8 °F 94% 30.09 in 4.0 mi East 4.6 mph - 0.02 in Rain , Thunderstorm Light Rain
11:28 AM 71.6 °F 69.8 °F 94% 30.09 in 3.0 mi SE 10.4 mph - 0.05 in Rain Rain
11:38 AM 69.8 °F 69.8 °F 100% 30.08 in 2.5 mi SE 11.5 mph - 0.07 in Rain Rain
11:53 AM 70.0 °F 70.0 °F 100% 30.07 in 5.0 mi SSE 11.5 mph - 0.08 in Rain , Thunderstorm Light Rain
12:24 PM 69.8 °F 68.0 °F 94% 30.06 in 2.5 mi SE 10.4 mph - 0.08 in Rain , Thunderstorm Rain
12:41 PM 69.8 °F 66.2 °F 88% 30.06 in 4.0 mi SSE 10.4 mph - 0.14 in Rain Light Rain
12:50 PM 69.8 °F 68.0 °F 94% 30.06 in 8.0 mi SSE 9.2 mph - 0.14 in Rain , Thunderstorm Light Thunderstorms and Rain
12:53 PM 69.1 °F 68.0 °F 96% 30.06 in 8.0 mi SSE 8.1 mph - 0.14 in Rain , Thunderstorm Light Thunderstorms and Rain
1:06 PM 69.8 °F 69.8 °F 100% 30.06 in 10.0 mi SSE 11.5 mph - 0.00 in   Overcast
1:53 PM 71.1 °F 68.0 °F 90% 30.06 in 10.0 mi South 11.5 mph 17.3 mph 0.00 in Rain Light Rain
2:53 PM 73.0 °F 66.9 °F 81% 30.07 in 10.0 mi South 9.2 mph - 0.00 in   Overcast
3:11 PM 71.6 °F 64.4 °F 78% 30.08 in 10.0 mi South 11.5 mph 20.7 mph N/A   Overcast
3:53 PM 72.0 °F 66.9 °F 84% 30.07 in 10.0 mi Calm Calm - N/A   Overcast
4:53 PM 69.1 °F 66.9 °F 93% 30.06 in 10.0 mi North 6.9 mph - N/A   Overcast
5:01 PM 69.8 °F 66.2 °F 88% 30.07 in 10.0 mi North 8.1 mph - N/A   Overcast
5:12 PM 69.8 °F 66.2 °F 88% 30.07 in 10.0 mi North 5.8 mph - N/A   Overcast
5:32 PM 68.0 °F 66.2 °F 94% 30.07 in 10.0 mi North 8.1 mph - N/A   Overcast
5:53 PM 66.0 °F 64.9 °F 96% 30.08 in 10.0 mi North 11.5 mph - N/A   Overcast
6:53 PM 63.0 °F 62.1 °F 97% 30.09 in 9.0 mi North 9.2 mph - N/A   Overcast
7:53 PM 61.0 °F 60.1 °F 97% 30.11 in 10.0 mi North 9.2 mph 16.1 mph N/A   Overcast
8:53 PM 59.0 °F 57.9 °F 96% 30.14 in 10.0 mi North 10.4 mph - N/A   Overcast
9:53 PM 59.0 °F 57.0 °F 93% 30.17 in 10.0 mi North 11.5 mph 19.6 mph N/A   Overcast
10:17 PM 59.0 °F 55.4 °F 88% 30.17 in 10.0 mi NNE 11.5 mph - N/A   Overcast
10:32 PM 59.0 °F 57.2 °F 94% 30.17 in 10.0 mi North 11.5 mph - N/A   Overcast
10:40 PM 59.0 °F 57.2 °F 94% 30.17 in 10.0 mi North 13.8 mph - N/A   Overcast
10:53 PM 59.0 °F 57.0 °F 93% 30.17 in 10.0 mi North 9.2 mph - N/A   Overcast
11:05 PM 57.2 °F 57.2 °F 100% 30.17 in 10.0 mi North 11.5 mph - N/A   Overcast
11:53 PM 57.9 °F 55.9 °F 93% 30.18 in 10.0 mi North 12.7 mph - N/A   Overcast